カタログに戻る

STARLINK-11323

運用中通信VLEO
NORAD 61533·PAYLOAD·🇺🇸 United States

打ち上げ Oct 15, 2024 から Vandenberg Space Force Base

Loading…

次のパス (今後24時間)

TLE

最新Source: CelesTrak SupGP

元期: Sep 14, 2026, 21:15 UTC

1 61533C 24184B   26257.88590278  .00063538  00000+0  52316-3 0  2577
2 61533  53.1572  23.5688 0001048  75.2557 266.3577 15.69688173    10

AllMySatでSTARLINK-11323をリアルタイム追跡

Download on the App Store